Location: Miss�
(46.9484°N, 0.1922°W)
Time: 08:43:08
(UTC+00:00)

Cosmos 1992 Rocket - Pass Details

Date: 02 March 2021
Orbit: 759 x 765 km, 74.0° (Epoch: 12 April)

Event Time Altitude Azimuth Distance (km) Brightness Sun altitude
Rises 18:25:35 0° 177° (S) 3,216 7.2 -7.2°
Reaches altitude 10° 18:28:05 10° 169° (S) 2,295 6.4 -7.6°
Maximum altitude 18:32:51 38° 103° (ESE) 1,160 4.5 -8.5°
Drops below altitude 10° 18:37:39 10° 36° (NE) 2,308 6.1 -9.3°
Sets 18:40:10 0° 29° (NNE) 3,238 7.0 -9.7°
